Skip Navigation Links weather.gov 
NOAA logo-Select to go to the NOAA homepage NDBC Title GraphicClick to go to NDBC home page   Select to go to the NWS homepage
Home About Us Contact Us
 
 
    
    Station List

 Data Access
    Mobile Access
    Classic Maps
         Recent
         DART®
    Obs Search
    Ship Obs Report
    BuoyCAMs
    TAO
    DODS
    OceanSITES
    HF Radar
    OSMC
    Dial-A-Buoy
    RSS Feeds Image indicating link to RSS feed access page
    Web Widget
    Web Data Guide
    Maintenance Schedule
    Station Status Report

 Program Info
    TAO
    DART®
    IOOS®

 Publications
    NDBC PEA
    NDBC FONSI
    NDBC DQC Handbook

 Visitor Information
 
USA.gov is the U.S. government's official web portal to all federal, state and local government web resources and services.

Hurricane Symbol Storm Special! View the latest observations near Atlantic Tropical Storm Sebastien.

Station WDSV2 - 8638614 - Willoughby Deguassing Station, VA Image indicating link to RSS feed of recent meteorological observations for station WDSV2

Owned and maintained by NOAA's National Ocean Service
C-MAN Station
36.977 N 76.315 W (36°58'38" N 76°18'56" W)

Air temp height: 2.9 m above site elevation

Latest NWS Marine Forecast

Search And Rescue (SAR) Data

Meteorological Observations from Nearby Stations and Ships Image indicating link to RSS feed of recent meteorological observations near station WDSV2

Regional HF Radar Surface Current Observations

Large icon indicates selected station.
yellow diamond Stations with recent data
red diamond Stations with no data in last 8 hours
     (24 hours for tsunami stations)


Conditions at WDSV2 as of
(5:12 pm EST)
2212 GMT on 11/22/2019:
     

Click on the graph icon in the table below to see a time series plot of the last five days of that observation.

5-day plot - Wind Direction Wind Direction (WDIR): SW ( 230 deg true )
5-day plot - Wind Speed Wind Speed (WSPD): 13 kts
5-day plot - Wind Gust Wind Gust (GST): 13 kts
5-day plot - Atmospheric Pressure Atmospheric Pressure (PRES): 29.88 in
5-day plot - Air Temperature Air Temperature (ATMP): 57.0 °F
5-day plot - Wind Speed at 10 Meters Wind Speed at 10 meters (WSPD10M): 14 kts
5-day plot - Wind Speed at 10 Meters Wind Speed at 20 meters (WSPD20M): 14 kts
5-day plot - Wind Speed, Wind Gust and Atmospheric Pressure Combined plot of Wind Speed, Gust, and Air Pressure
NOS Water Level Observation Network Water Level
Previous observations
5-day plot - Wind Direction 5-day plot - Wind Speed 5-day plot - Wind Gust 5-day plot - Wave Height 5-day plot - Dominant Wave Period 5-day plot - Average Period 5-day plot - Mean Wave Direction 5-day plot - Atmospheric Pressure 5-day plot - Pressure Tendency 5-day plot - Air Temperature 5-day plot - Water Temperature 5-day plot - Dew Point 5-day plot - Salinity 5-day plot - Visibility 5-day plot - Tide (above MLLW)
MM DD TIME
(EST)
WDIR WSPD
kts
GST
kts
WVHT
ft
DPD
sec
APD
sec
MWD PRES
in
PTDY
in
ATMP
°F
WTMP
°F
DEWP
°F
SAL
psu
VIS
nmi
TIDE
ft
1122 5:06 pmWSW 12 12----29.89- 56.5-----
1122 5:00 pmWSW 10 11----29.89+0.06 57.0-----
1122 4:54 pmWSW 10 12----29.89- 57.2-----
1122 4:48 pmWSW 11 12----29.88- 57.7-----
1122 4:42 pmWSW 11 13------------
1122 4:36 pmWSW 11 12----29.88- 57.4-----
1122 4:30 pmWSW 10 14----29.88- 57.4-----
1122 4:24 pmWSW 12 15----29.88- 59.4-----
1122 4:18 pmWSW 12 12----29.88- 57.0-----
1122 4:12 pmWSW 10 11----29.88- 56.7-----
1122 4:06 pmWSW 10 12----29.88- 56.8-----
1122 4:00 pmWSW 12 13----29.88+0.02 57.2-----
1122 3:54 pm W 12 12----29.88- 57.2-----
1122 3:48 pm W 11 12----29.88- 57.6-----
1122 3:42 pmWSW 11 13----29.87- 58.1-----
1122 3:36 pmWSW 12 14----29.86- 57.9-----
1122 3:30 pmWSW 14 16----29.86- 57.9-----
1122 3:24 pmWSW 14 15----29.86- 57.6-----
1122 3:18 pmWSW 15 16----29.86- 57.9-----
1122 3:12 pmWSW 14 16----29.86- 58.5-----
1122 3:06 pmWSW 12 14----29.85- 56.8-----
1122 3:00 pmWSW 14 15----29.85-0.03 57.0-----
1122 2:54 pmWSW 12 14----29.85- 57.0-----
1122 2:48 pmWSW 14 17----29.85- 57.9-----
1122 2:42 pmWSW 15 16----29.84- 58.3-----
1122 2:36 pmWSW 15 17----29.84- 58.5-----
1122 2:30 pm SW 15 17----29.84- 58.3-----
1122 2:24 pm SW 15 17----29.84- 57.9-----
1122 2:18 pm SW 16 17----29.84- 58.5-----
1122 2:12 pm SW 15 18----29.83- 58.1-----
1122 2:06 pmWSW 16 19----29.83- 57.9-----
1122 2:00 pm SW 18 20----29.83-0.09 58.3-----
1122 1:54 pm SW 17 20----29.83- 57.6-----
1122 1:48 pm SW 18 20----29.83- 58.3-----
1122 1:42 pm SW 18 20----29.83- 58.6-----
1122 1:36 pm SW 17 19----29.84- 57.9-----
1122 1:30 pm SW 13 16----29.85- 57.2-----
1122 1:24 pmWSW 17 19----29.85- 57.7-----
1122 1:18 pmWSW 17 19----29.85- 58.1-----
1122 1:12 pmWSW 17 20----29.85- 57.4-----
1122 1:06 pmWSW 16 19----29.86- 56.8-----
1122 1:00 pmWSW 16 19----29.86-0.08 57.0-----
112212:54 pm SW 17 20----29.86- 57.2-----
112212:48 pm SW 16 24----29.86- 56.8-----
112212:42 pmWSW 17 18----29.86- 57.0-----
112212:36 pmWSW 14 17----29.87- 55.8-----
112212:30 pmWSW 16 18----29.87- 56.1-----
112212:24 pm SW 18 20----29.88- 56.1-----
112212:18 pmWSW 17 20----29.88- 55.8-----
112212:12 pm SW 17 20------------
112212:06 pmWSW 15 16----29.88- 54.9-----
112212:00 pmWSW 15 17----29.88-0.05 54.7-----
112211:54 amWSW 16 18----29.89- 54.5-----
112211:48 amWSW 16 17----29.89- 53.8-----
112211:42 amWSW 15 19----29.89- 53.8-----
112211:36 amWSW 18 20----29.90- 53.8-----
112211:30 amWSW 19 21----29.90- 53.8-----
112211:24 am SW 20 22----29.90- 54.3-----
112211:18 am SW 16 21----29.90- 54.3-----
112211:12 am SW 17 19----29.91-------
112211:06 am SW 17 18----29.92- 54.5-----
112211:00 am SW 16 20----29.92-0.03 53.6-----
112210:54 am SW 19 21----29.92- 54.1-----
112210:48 am SW 18 20----29.92- 54.0-----
112210:42 am SW 18 20----29.93- 54.1-----
112210:36 amWSW 16 17----29.93- 54.0-----
112210:30 amWSW 17 20----29.93- 54.0-----
112210:24 amWSW 19 21----29.93- 54.0-----
112210:18 amWSW 19 21----29.94- 53.8-----
112210:12 am SW 18 20----29.94- 53.6-----
112210:06 am SW 19 21----29.94- 53.4-----
112210:00 am SW 19 22----29.94+0.00 53.2-----
1122 9:54 amWSW 21 23----29.94- 53.2-----
1122 9:48 amWSW 19 21----29.94- 53.2-----
1122 9:42 am SW 17 19----29.95- 53.2-----
1122 9:36 am SW 18 21----29.95- 53.2-----
1122 9:30 am SW 18 20----29.95- 53.2-----
1122 9:24 am SW 19 21----29.95- 53.2-----
1122 9:18 am SW 17 19----29.94- 53.4-----
1122 9:12 am SW 18 19----29.93- 53.1-----
1122 9:06 am SW 16 18----29.94- 52.7-----
1122 9:00 am SW 16 18----29.94-0.02 52.7-----
1122 8:54 am SW 17 18----29.94- 52.5-----
1122 8:48 am SW 17 18----29.94- 52.5-----
1122 8:42 am SW 16 18----29.94- 52.3-----
1122 8:36 am SW 16 19----29.94- 52.3-----
1122 8:30 am SW 17 21----29.94- 52.5-----
1122 8:24 am SW 18 19----29.94- 52.5-----
1122 8:18 am SW 18 20----29.94- 52.7-----
1122 8:12 am SW 19 21----29.95- 52.9-----
1122 8:06 am SW 18 20----29.95- 52.7-----
1122 8:00 am SW 19 22----29.95-0.03------
1122 7:54 am SW 19 21----29.95- 53.1-----
1122 7:48 am SW 18 21----29.95- 52.9-----
1122 7:42 am SW 18 20----29.95- 52.9-----
1122 7:36 am SW 19 22----29.95- 52.7-----
1122 7:30 am SW 19 21----29.95- 52.9-----
1122 7:24 am SW 19 21----29.95- 52.5-----
1122 7:18 am SW 18 20----29.95- 52.3-----
1122 7:12 am SW 20 22----29.95- 52.5-----
1122 7:06 amSSW 19 22----29.94- 52.5-----
1122 7:00 amSSW 21 23----29.94-0.05 52.3-----
1122 6:54 amSSW 20 23----29.94- 52.0-----
1122 6:48 amSSW 20 22----29.95- 51.8-----
1122 6:42 amSSW 18 20----29.95- 51.8-----
1122 6:36 amSSW 17 21----29.95- 51.6-----
1122 6:30 amSSW 16 19----29.95- 51.6-----
1122 6:24 amSSW 16 19----29.95- 51.3-----
1122 6:18 am SW 16 18----29.96- 51.1-----
1122 6:12 amSSW 16 20----29.96- 51.1-----
1122 6:06 am SW 17 20----29.96- 51.1-----
1122 6:00 amSSW 17 20----29.96-0.04 51.1-----
1122 5:54 am SW 17 20----29.96- 51.3-----
1122 5:48 amSSW 17 20----29.96- 51.3-----
1122 5:42 amSSW 19 23----29.96- 51.3-----
1122 5:36 amSSW 17 20----29.96- 51.3-----
1122 5:30 amSSW 16 21----29.96- 50.9-----
1122 5:24 amSSW 18 20----29.97- 50.9-----
1122 5:18 amSSW 17 21----29.97- 50.7-----
1122 5:12 am SW 18 20----29.98- 50.9-----
1122 5:06 amSSW 17 21----29.98- 50.9-----
1122 5:00 amSSW 17 20----29.98-0.06 50.7-----
1122 4:54 amSSW 17 21----29.98- 50.7-----
1122 4:48 amSSW 15 20----29.98- 50.7-----
1122 4:42 amSSW 16 21----29.98- 50.5-----
1122 4:36 amSSW 16 20----29.98- 50.4-----
1122 4:30 amSSW 16 19----29.99- 50.4-----
1122 4:24 amSSW 17 21----29.99- 50.5-----
1122 4:18 amSSW 18 21----29.99- 50.5-----
1122 4:12 amSSW 18 22----29.99- 50.7-----
1122 4:06 amSSW 19 22----29.99- 50.9-----
1122 4:00 amSSW 18 20----29.99-0.07 50.7-----
1122 3:54 amSSW 19 22----29.99- 50.9-----
1122 3:48 amSSW 19 22----30.00- 51.1-----
1122 3:42 amSSW 20 22----30.00- 51.4-----
1122 3:36 amSSW 18 24----30.00- 51.8-----
1122 3:30 amSSW 18 26----30.00-------
1122 3:24 amSSW 20 23----30.00- 51.4-----
1122 3:18 amSSW 19 22----30.00- 51.1-----
1122 3:12 amSSW 19 22----30.00- 51.1-----
1122 3:06 amSSW 18 22----30.00- 50.9-----
1122 3:00 amSSW 19 22----30.01-0.07 51.1-----
1122 2:54 amSSW 16 21----30.02- 50.7-----
1122 2:48 amSSW 15 20----30.02- 50.5-----
1122 2:42 amSSW 15 18----30.03- 50.5-----
1122 2:36 amSSW 14 18----30.03- 50.4-----
1122 2:30 amSSW 14 17----30.03- 50.4-----
1122 2:24 amSSW 13 16----30.03- 50.2-----
1122 2:18 amSSW 13 16----30.03- 50.2-----
1122 2:12 amSSW 12 16----30.04- 50.0-----
1122 2:06 amSSW 13 16----30.04- 49.8-----
1122 2:00 amSSW 13 16----30.04-0.07 49.8-----
1122 1:54 amSSW 12 16----30.04- 49.6-----
1122 1:48 amSSW 14 17----30.04- 49.6-----
1122 1:42 amSSW 14 17----30.04- 49.5-----
1122 1:36 amSSW 15 19----30.04- 49.6-----
1122 1:30 amSSW 15 18----30.05- 49.5-----
1122 1:24 amSSW 16 18----30.05- 49.5-----
1122 1:18 amSSW 15 18----30.05- 49.5-----
1122 1:12 amSSW 16 19----30.05- 49.6-----
1122 1:06 amSSW 15 18----30.06- 49.6-----
1122 1:00 amSSW 15 18----30.06-0.07 49.8-----
112212:54 amSSW 16 19----30.06- 50.0-----
112212:48 amSSW 16 18----30.06- 50.4-----
112212:42 amSSW 16 18----30.06- 50.4-----
112212:36 amSSW 16 20----30.06- 50.4-----
112212:30 amSSW 17 19----30.06- 50.4-----
112212:24 amSSW 15 19----30.07- 50.4-----
112212:18 amSSW 14 19----30.08- 50.4-----
112212:12 amSSW 18 20----30.08- 50.4-----
112212:06 amSSW 16 19----30.08- 50.4-----
112212:00 amSSW 17 19----30.08-0.07 50.2-----
112111:54 pmSSW 15 19----30.08- 50.2-----
112111:48 pmSSW 15 18----30.08- 50.0-----
112111:42 pmSSW 14 18----30.09- 50.0-----
112111:36 pmSSW 13 17----30.09- 49.8-----
112111:30 pmSSW 12 16----30.10- 49.8-----
112111:24 pmSSW 14 17----30.10- 49.8-----
112111:18 pmSSW 14 16----30.10- 50.0-----
112111:12 pmSSW 12 17----30.11- 49.8-----
112111:06 pmSSW 14 16----30.11- 49.6-----
112111:00 pm S 13 17----30.11-0.06 49.6-----
112110:54 pm S 14 17----30.11- 49.6-----
112110:48 pmSSW 13 15----30.11- 49.8-----
112110:42 pmSSW 13 16----30.12- 49.8-----
112110:36 pmSSW 13 16----30.12- 50.0-----
112110:30 pm S 12 14----30.12- 49.6-----
112110:24 pm S 13 14----30.12- 49.6-----
112110:18 pm S 11 13----30.12- 49.6-----
112110:12 pm S 11 12----30.13- 49.5-----
112110:06 pm S 12 13----30.13- 49.6-----
112110:00 pm S 11 13----30.14-0.02 49.8-----
1121 9:54 pm S 11 13----30.14- 50.0-----
1121 9:48 pm S 10 13----30.14- 50.0-----
1121 9:42 pm S 11 13----30.14- 50.2-----
1121 9:36 pm S 11 13----30.14- 50.4-----
1121 9:30 pm S 11 13----30.14- 50.4-----
1121 9:24 pmSSW 12 12----30.15- 50.7-----
1121 9:18 pmSSW 11 13----30.15- 50.5-----
1121 9:12 pm S 10 12----30.15- 50.5-----
1121 9:06 pm S 10 11----30.15- 50.5-----
1121 9:00 pm S 8 11----30.15-0.02 50.2-----
1121 8:54 pm S 7 8----30.15- 50.2-----
1121 8:48 pm S 7 9----30.15- 50.5-----
1121 8:42 pm S 8 10----30.15- 50.5-----
1121 8:36 pm S 8 9----30.15- 50.5-----
1121 8:30 pm S 8 9----30.15- 50.5-----
1121 8:24 pm S 7 9----30.16- 50.5-----
1121 8:18 pm S 7 9----30.16- 50.7-----
1121 8:12 pm S 8 9----30.16- 50.9-----
1121 8:06 pmSSW 9 12----30.16- 51.1-----
1121 8:00 pmSSW 10 13----30.17-0.01 51.3-----
1121 7:54 pmSSW 10 11----30.17- 51.3-----
1121 7:48 pmSSW 9 10----30.16- 50.9-----
1121 7:42 pm S 8 9----30.16- 50.4-----
1121 7:36 pm S 7 8----30.16- 50.4-----
1121 7:30 pm S 8 8----30.15- 50.2-----
1121 7:24 pm S 7 8----30.15- 50.4-----
1121 7:18 pm S 7 7----30.16- 50.5-----
1121 7:12 pm S 5 6----30.16-------
1121 7:06 pm S 4 6----30.16- 50.9-----
1121 7:00 pm S 6 7----30.16-0.01 50.9-----
1121 6:54 pm S 6 7----30.16- 50.9-----
1121 6:48 pm S 6 8----30.16- 51.1-----
1121 6:42 pmSSW 7 8----30.16- 51.3-----
1121 6:36 pmSSW 6 7----30.17- 51.1-----
1121 6:30 pmSSW 5 6----30.16- 51.1-----
1121 6:24 pmSSW 5 5----30.16- 50.9-----
1121 6:18 pmSSW 5 6----30.16- 50.5-----
1121 6:00 pm SW 6 8----30.17+0.00 50.5-----
1121 5:54 pm SW 7 7----30.16- 50.5-----

Description of Measurements

Links which are specific to this station are listed below:

Real Time Data in tabular form for the last forty-five days.

Historical Data & Climatic Summaries for quality controlled data for the current month, previous months, and previous years.